Location: Sevilla
(37.3933°N, 5.9839°W)
Time: 06:06:05
(UTC+02:00)

Transit 2A - Pass Details

Date: 02 July 2024
Orbit: 591 x 960 km, 66.7° (Epoch: 15 July)

Event Time Altitude Azimuth Distance (km) Brightness Sun altitude
Rises 16:33:06 0° 263° (W) 3,120 9.6 59.6°
Reaches altitude 10° 16:36:40 10° 290° (WNW) 2,290 9.0 58.9°
Maximum altitude 16:39:13 13° 319° (NW) 2,117 8.7 58.4°
Drops below altitude 10° 16:41:53 10° 348° (NNW) 2,418 8.7 57.9°
Sets 16:45:53 0° 14° (NNE) 3,445 9.2 57.2°
